Terug naar catalogus

OPS 4682 DEB

ActiefPO
NORAD 51487·DEBRIS·🇺🇸 United States

Gelanceerd Apr 3, 1965 vanaf Vandenberg Space Force Base

Loading…

Volgende Passages (komende 24 uur)

TLE

VersSource: Space-Track

Epoch: Sep 14, 2026, 14:21 UTC

1 51487U 65027FX  26257.59829398 -.00000087  00000-0 -33097-3 0  9992
2 51487  90.2407   8.6531 0024787 280.7789  93.3693 12.95961427575131

Volg OPS 4682 DEB in realtime met AllMySat

Download on the App Store